User: anonymous   Login
Location: Unspecified
(0.0000°N, 0.0000°E)
Time: 03:06:20
(UTC+00:00)
Language:

FALCON 9 R/B - Orbit

View from above orbital plane
View from above orbital plane
View from above satellite
View from above satellite

Ground track
Ground track

The orbit data is extracted from the following two-line orbital elements,

1 39271U 13055G   24107.56414701  .00089508  69409-6  11439-2 0  9992
2 39271  80.9359 153.5732 0336362 152.8113 209.1187 15.13392033556024
Epoch (UTC): 16 April 2024 13:32:22
Eccentricity: 0.0336362
inclination: 80.9359°
perigee height: 293 km
apogee height: 758 km
right ascension of ascending node: 153.5732°
argument of perigee: 152.8113°
revolutions per day: 15.13392033
mean anomaly at epoch: 209.1187°
orbit number at epoch: 55602

The dashed part of the orbit path shows where the satellite is in the earth's shadow,  

DLR